SCATSAT 1

Last updated on Tue Jul 01 2025 00:02:30 GMT+0000 (Coordinated Universal Time)

1 41790U 16059H 25181.59755879 .00000695 00000+0 10128-3 0 9998 2 41790 98.1682 236.0463 0054712 300.3801 59.2007 14.78262244 49629
UTC large
Height (km)
Speed (km/s)
/
Latitude / Longitude
Inclination (degrees)
Orbital Period (minutes)
Azimuth
Elevation
Range (km)
Doppler Factor

Next 0 passes for location: London (51.5072 / 0.1276)

Sorry there are no passes over London.